Home   Weather   Paradise   Past weeks

Flag for USA Past Weather in Paradise, California, USA — Yesterday and Last 2 Weeks

Now
39 °F

Clear.


Feels Like: 39 °F
Forecast: 37 / 48 °F
Wind: No wind

Location: Chico Municipal

Current Time: Dec 5, 2016 at 12:33:19 am

Latest Report: Dec 5, 2016 at 12:15 am


Visibility: 10 mi

Pressure: 30.13 "Hg (28.23 "Hg at 527m altitude)

Humidity: 93%

Dew Point: 37 °F

Location of ParadiseLocation

Past Weather in Paradise — Graph

°F

Paradise Temperature Yesterday

Maximum temperature yesterday: 52 °F (at 12:51 pm)
Minimum temperature yesterday: 37 °F (at 7:55 am)
Average temperature yesterday: 44 °F

High & Low Weather Summary for the Past Weeks

 TemperatureHumidityPressure
High59 °F (Nov 21, 1:47 pm)100% (Nov 19, 11:15 pm)30.39 "Hg (Nov 19, 11:15 pm)
Low34 °F (Nov 24, 6:47 am)36% (Dec 2, 12:49 pm)29.77 "Hg (Nov 26, 4:50 pm)
Average46 °F83%30.12 "Hg
* Reported Nov 19 11:15 pm — Dec 4 11:15 pm, Paradise, Weather by CustomWeather, © 2016

Note: Actual official high and low records may vary slightly from our data, if they occured in-between our weather recording intervals... More about our weather records

Advertising

Paradise Weather History for the Previous 24 Hours

Scroll right to see more
 ConditionsComfort  
Time TempWeatherWind HumidityBarometerVisibility
11:15 pm
Sun, Dec 4
43 °FClear.No wind87%30.14 "Hg10 mi
10:55 pm43 °FPassing clouds.No wind93%30.13 "Hg10 mi
10:35 pm41 °FPassing clouds.No wind93%30.13 "Hg10 mi
10:15 pm41 °FOvercast.No wind93%30.14 "Hg10 mi
9:55 pm41 °FOvercast.No wind93%30.13 "Hg10 mi
9:35 pm41 °FPassing clouds.3 mph93%30.13 "Hg10 mi
9:15 pm41 °FClear.No wind93%30.12 "Hg10 mi
8:55 pm41 °FClear.3 mph93%30.11 "Hg10 mi
8:35 pm41 °FClear.5 mph93%30.12 "Hg10 mi
8:15 pm41 °FClear.5 mph93%30.12 "Hg10 mi
7:55 pm41 °FClear.5 mph93%30.13 "Hg10 mi
7:35 pm45 °FClear.3 mph87%30.13 "Hg10 mi
7:15 pm41 °FClear.No wind93%30.13 "Hg10 mi
6:55 pm45 °FClear.No wind87%30.13 "Hg10 mi
6:35 pm45 °FClear.No wind87%30.12 "Hg10 mi
6:15 pm45 °FClear.No wind87%30.12 "Hg10 mi
5:55 pm46 °FClear.No wind87%30.12 "Hg10 mi
5:47 pm46 °FMostly cloudy.No wind87%30.12 "Hg10 mi
4:47 pm50 °FMostly cloudy.6 mph82%30.12 "Hg10 mi
3:51 pm50 °FMostly cloudy.6 mph82%30.13 "Hg10 mi
2:45 pm52 °FOvercast.No wind67%30.14 "Hg10 mi
1:47 pm52 °FOvercast.6 mph72%30.16 "Hg10 mi
12:51 pm52 °FOvercast.6 mph67%30.18 "Hg8 mi
11:51 am50 °FOvercast.6 mph71%30.21 "Hg8 mi
10:48 am48 °FOvercast.6 mph76%30.23 "Hg8 mi
9:47 am43 °FOvercast.6 mph87%30.24 "Hg8 mi
8:53 am41 °FOvercast.6 mph87%30.24 "Hg10 mi
7:55 am37 °FMore clouds than sun.6 mph93%30.24 "Hg10 mi
6:45 am41 °FPartly cloudy.No wind87%30.22 "Hg10 mi
5:35 am41 °FClear.No wind87%30.21 "Hg10 mi
5:15 am41 °FClear.No wind87%30.20 "Hg10 mi
4:55 am41 °FClear.No wind87%30.20 "Hg10 mi
4:35 am41 °FClear.No wind87%30.20 "Hg10 mi
4:15 am41 °FClear.No wind87%30.20 "Hg10 mi
3:55 am45 °FClear.No wind76%30.21 "Hg10 mi
3:35 am43 °FClear.5 mph81%30.21 "Hg10 mi
3:15 am45 °FClear.No wind76%30.21 "Hg10 mi
2:55 am45 °FClear.6 mph76%30.21 "Hg10 mi
2:35 am43 °FClear.7 mph81%30.20 "Hg10 mi
2:15 am41 °FClear.6 mph87%30.20 "Hg10 mi
1:35 am41 °FClear.3 mph87%30.21 "Hg10 mi
1:15 am41 °FClear.No wind87%30.21 "Hg10 mi
12:55 am45 °FClear.3 mph76%30.22 "Hg10 mi
12:15 am45 °FClear.5 mph81%30.22 "Hg10 mi
Weather by CustomWeather, © 2016

See weather overviewHow to use our weather pages